• Join FlightAware (Why Join?)
  • Login
  • US Flag 
04:36PM EST


 

Airport Tracker/Info


-or-


 

Live Flight TrackerFlight Track Log ✈ EGF3796 ✈ 04-May-2013 ✈ KORD - KXNA

Flight Track Log - Related Links

Times and Time Zones

All times are in EDT time to prevent confusion due to time zone crossing. See the EGF3796 flight status page for this flight to view local times or setup timezone preferences in your user account.

Time Position Orientation Groundspeed Altitude Reporting Facility
EDT Latitude Longitude Course Direction KTS MPH feet Rate Location/Type
06:20PM 41.9667 -87.8667 201° Southwest 172 198 2,100  Level Chicago TRACON
06:21PM 41.9167 -87.8500 166° South 245 282 3,900 2,763 Climbing Chicago TRACON
06:22PM 41.6332 -88.0649 203° Southwest  Level FlightAware Approximate
06:22PM 41.8303 -87.8864 197° South 270 311 8,500  Level Chicago Center
06:23PM 41.5172 -88.1165 197° South  Level FlightAware Approximate
06:23PM 41.7611 -87.9322 206° Southwest 278 320 11,300  Level Chicago Center
06:24PM 41.3995 -88.1613 194° South  Level FlightAware Approximate
06:24PM 41.6642 -87.9994 207° Southwest 344 396 12,500  Level Chicago Center
06:25PM 41.2843 -88.2162 201° Southwest  Level FlightAware Approximate
06:25PM 41.5689 -88.0656 207° Southwest 384 442 14,000  Level Chicago Center
06:26PM 41.4750 -88.1322 208° Southwest 393 452 16,700 2,439 Climbing Chicago Center
06:27PM 41.3814 -88.1911 205° Southwest 389 448 19,000 1,951 Climbing Chicago Center
06:29PM 41.2592 -88.2450 198° South 392 451 20,700 1,355 Climbing Chicago Center
06:30PM 41.1503 -88.2950 199° South 411 473 21,800 1,122 Climbing Chicago Center
06:31PM 41.0372 -88.3456 199° South 427 491 23,000 1,171 Climbing Chicago Center
06:32PM 40.9219 -88.3972 199° South 436 502 24,200 1,113 Climbing Chicago Center
06:33PM 40.8139 -88.4769 209° Southwest 454 522 25,300 1,073 Climbing Chicago Center
06:34PM 40.7128 -88.5817 218° Southwest 462 532 26,400 1,366 Climbing Chicago Center
06:35PM 40.5950 -88.7111 220° Southwest 462 532 28,100 1,512 Climbing Chicago Center
06:36PM 40.4967 -88.8142 219° Southwest 457 526 29,500 927 Climbing Chicago Center
06:37PM 40.3919 -88.9236 219° Southwest 455 524 30,000 242 Climbing Chicago Center
06:38PM 40.2919 -89.0278 218° Southwest 456 525 30,000  Level Chicago Center
06:39PM 40.1922 -89.1308 218° Southwest 455 524 30,000 407 Level Chicago Center
06:40PM 40.1106 -89.2133 218° Southwest 454 522 30,800 1,008 Climbing Kansas City Center
06:41PM 40.0114 -89.3167 219° Southwest 454 522 32,000 585 Climbing Kansas City Center
06:42PM 39.8917 -89.4389 218° Southwest 454 522 32,000  Level Kansas City Center
06:43PM 39.7894 -89.5442 218° Southwest 461 531 32,000  Level Kansas City Center
06:44PM 39.6936 -89.6433 219° Southwest 461 531 32,000  Level Kansas City Center
06:45PM 39.5950 -89.7433 218° Southwest 455 524 32,000  Level Kansas City Center
06:46PM 39.4969 -89.8431 218° Southwest 451 519 32,000  Level Kansas City Center
06:47PM 39.3992 -89.9433 218° Southwest 450 518 32,000  Level Kansas City Center
06:48PM 39.2814 -90.0611 218° Southwest 448 516 32,000  Level Kansas City Center
06:49PM 39.1836 -90.1594 218° Southwest 448 516 32,000  Level Kansas City Center
06:50PM 39.0861 -90.2578 218° Southwest 448 516 32,000  Level Kansas City Center
06:51PM 38.9881 -90.3564 218° Southwest 450 518 32,000 146 Level Kansas City Center
06:52PM 38.8781 -90.4672 218° Southwest 443 510 32,300 683 Climbing Kansas City Center
06:53PM 38.7897 -90.5900 227° Southwest 457 526 33,400 829 Climbing Kansas City Center
06:54PM 38.7031 -90.7192 229° Southwest 470 541 34,000 293 Climbing Kansas City Center
06:55PM 38.6161 -90.8481 229° Southwest 480 552 34,000  Level Kansas City Center
06:56PM 38.5300 -90.9750 229° Southwest 479 551 34,000  Level Kansas City Center
06:57PM 38.4456 -91.1011 229° Southwest 474 545 34,000  Level Kansas City Center
06:58PM 38.3603 -91.2256 229° Southwest 470 541 34,000  Level Kansas City Center
06:59PM 38.2739 -91.3506 229° Southwest 471 542 34,000  Level Kansas City Center
07:00PM 38.1850 -91.4814 229° Southwest 469 540 34,000  Level Kansas City Center
07:01PM 38.0964 -91.6075 228° Southwest 474 545 34,000 -537 Level Kansas City Center
07:02PM 38.0086 -91.7356 229° Southwest 477 549 32,900 -1,248 Descending Kansas City Center
07:03PM 37.9050 -91.8894 230° Southwest 475 547 31,400 -1,317 Descending Kansas City Center
07:04PM 37.8172 -92.0161 229° Southwest 473 544 30,200 -694 Descending Kansas City Center
07:05PM 37.7367 -92.1303 228° Southwest 480 552 30,000 -98 Descending Kansas City Center
07:06PM 37.6331 -92.2775 228° Southwest 492 566 30,000 -49 Level Kansas City Center
07:07PM 37.5414 -92.4086 229° Southwest 492 566 29,900 -1,073 Descending Kansas City Center
07:08PM 37.4525 -92.5361 229° Southwest 483 556 27,800 -2,000 Descending Kansas City Center
07:09PM 37.3631 -92.6583 227° Southwest 474 545 25,800 -2,066 Descending Kansas City Center
07:10PM 37.2725 -92.7822 227° Southwest 476 548 23,600 -2,098 Descending Kansas City Center
07:11PM 37.1836 -92.9081 228° Southwest 479 551 21,500 -2,000 Descending Kansas City Center
07:13PM 37.0956 -93.0283 227° Southwest 470 541 19,500 -1,805 Descending Kansas City Center
07:14PM 37.0119 -93.1433 228° Southwest 454 522 17,800 -1,659 Descending Kansas City Center
07:15PM 36.9283 -93.2603 228° Southwest 448 516 16,100 -1,707 Descending Kansas City Center
07:16PM 36.8422 -93.3742 227° Southwest 447 514 14,300 -1,659 Descending Kansas City Center
07:17PM 36.7592 -93.4783 225° Southwest 435 501 12,700 -1,525 Descending Kansas City Center
07:18PM 36.6792 -93.5792 225° Southwest 418 481 11,200 -1,415 Descending Kansas City Center
07:19PM 36.5864 -93.6919 224° Southwest 398 458 9,800 -585 Descending Kansas City Center
07:20PM 36.5108 -93.7767 222° Southwest 377 434 10,000 98 Climbing Kansas City Center
07:21PM 36.4514 -93.8689 231° Southwest 375 432 10,000 -585 Level Kansas City Center
07:22PM 36.3997 -93.9481 231° Southwest 314 361 8,800 -1,574 Descending Kansas City Center
07:23PM 36.3392 -94.0369 230° Southwest 286 329 6,800 -1,854 Descending Kansas City Center
07:24PM 36.2925 -94.1100 232° Southwest 275 316 5,000 -1,742 Descending Kansas City Center